STARLINK-1708 (46580 NORAD) Tracking and Keplerian Element Data

This shows tracking and keplerian element data for the satellite.

Feedback or suggestion? Click here.




ElementValue
Catalog46580
NameSTARLINK-1708
Epoch Orbit966
Epoch Day336.91667824
Epoch Year2020
RAAN165.2409
Inclination53.0001
Eccentricity0.0002073
Argument of Perigee22.2736
Mean Anonmoly15.8661
Mean Motion15.62761857
Decay Rate-0.0005152
L11 46580U 20070BA 20336.91667824 -.00051520 00000-0 -56012-3 0 9991
L22 46580 53.0001 165.2409 0002073 22.2736 15.8661 15.62761857 9661

Live tracking and technical data element details for STARLINK-1708 (NORAD 46580). STARLINK-1708 can be tracked NOW for your location showing map with azimuth and elevation plus other details from your city location.

Track the satellite on the map from your city or location and see movement details for azimuth, elevation, latitude, longitude, range, height, and movement on the map or in text.







IsCatalogInMostPopularTable: catalog: 46580, numindb: 13
Update: records affected: 1



GetName: 46580 STARLINK-1708

Hit Count: updated at: Wed, 02 Dec 2020 19:05:05 GMT